Presure
103 141 115 137 97 87 95 149 151 91 158 91 160 143 124 158 138 144 159 149 146 135 135 132 135 141 149 128 151 122 133 127 174 149 150 143 131 132 141 129 151 168 188 189 177
99 132 102 148 128 122 87 115 93 121 150 145 142 137 102 109 117 144 136 135 142 126 150 157 133 143 134 148 141 153 143 142 137 118 146 171 145 125 128 141 163 192 190 192 174
127 95 142 129 84 100 155 140 89 91 138 166 125 175 164 134 135 141 157 143 136 153 146 159 128 118 130 144 130 120 130 139 134 122 143 150 144 153 166 189 180 182 126 185 185
141 133 159 105 110 149 106 97 116 118 93 168 137 174 144 145 144 147 140 150 142 139 148 139 121 152 124 147 132 139 125 142 116 139 137 144 172 153 156 185 171 187 188 184 175
161 168 131 120 125 143 130 123 122 148 160 148 136 134 156 143 166 136 139 160 138 140 156 156 133 144 137 126 137 130 122 113 148 131 120 154 144 198 171 179 202 192 183 191 171
170 185 154 132 120 136 145 155 142 141 148 128 150 150 141 182 147 156 137 155 143 140 145 139 153 137 132 169 127 142 140 126 141 115 142 144 158 119 179 198 209 194 185 187 178
153 152 149 166 135 137 129 138 143 148 128 143 123 159 142 141 162 160 144 164 187 140 125 159 158 116 150 114 120 127 123 181 158 126 128 152 166 180 192 205 194 193 141 175 144
155 164 144 156 130 179 139 167 160 126 128 113 191 151 147 158 172 144 135 141 154 132 148 124 119 118 114 111 122 125 125 163 147 144 112 145 159 172 183 203 186 193 172 140 141
161 182 164 159 163 158 165 134 129 131 149 135 129 127 140 139 158 140 141 144 141 145 137 143 123 123 132 121 115 122 122 124 119 131 111 204 114 168 206 173 170 194 180 143 149
192 171 152 120 195 148 143 141 135 157 144 143 153 121 132 169 140 155 138 143 152 154 153 135 123 118 119 121 104 151 168 160 114 180 113 186 149 212 180 189 175 189 145 143 159
196 183 180 177 172 127 150 135 137 150 184 129 131 155 172 138 140 131 136 134 143 125 140 151 130 116 117 121 118 112 124 158 115 113 211 148 166 177 150 195 119 163 167 142 160
183 140 184 155 171 195 136 143 137 141 143 142 145 132 143 136 139 144 136 125 143 129 158 129 122 157 122 121 125 115 160 158 98 176 138 170 161 167 146 158 161 140 156 166 149
189 144 176 182 187 153 161 155 161 139 180 139 146 146 139 147 144 148 128 147 138 154 145 134 159 107 121 165 134 164 120 160 111 100 107 161 159 144 168 187 181 183 132 176 142
176 117 182 129 168 135 183 169 155 151 145 149 170 141 152 142 148 123 145 138 167 142 142 176 133 139 112 113 118 115 153 140 132 103 94 157 162 150 169 164 155 188 185 189 144
141 194 166 184 184 187 149 125 167 139 139 147 144 165 140 152 152 132 131 138 154 140 163 137 123 152 138 112 167 152 151 103 112 97 120 170 157 150 153 151 151 162 203 176 180
198 182 104 148 183 154 171 188 140 153 178 169 147 158 149 148 160 160 139 144 137 139 152 156 121 116 127 175 132 153 147 106 164 96 152 149 153 151 152 205 152 153 186 166 157
230 184 191 179 151 185 182 197 187 134 153 164 157 172 155 147 159 146 146 148 147 173 163 146 128 176 153 165 152 154 140 133 129 147 143 146 150 141 145 194 201 171 186 172 161
244 208 186 184 167 163 179 173 181 156 176 194 144 159 180 154 155 143 139 144 143 147 151 124 157 168 159 161 155 150 140 154 123 141 152 149 147 145 141 187 140 195 191 184 167
235 211 183 183 178 182 174 159 166 176 140 144 180 180 138 145 146 172 174 173 180 152 173 171 177 152 158 151 151 151 101 147 150 107 147 144 153 156 152 216 206 157 188 210 187
263 216 200 197 182 168 195 166 181 160 184 167 133 160 159 171 145 144 173 155 166 155 154 192 157 149 150 148 159 155 140 146 137 144 140 142 162 165 149 214 208 157 195 181 191
251 219 202 197 183 183 142 158 178 199 141 137 155 147 130 178 151 149 180 177 167 179 159 149 164 177 140 167 149 153 148 132 137 134 137 145 144 166 203 209 207 186 167 196 196
243 238 212 203 194 189 178 181 141 180 192 171 115 175 157 133 157 125 159 145 166 160 173 173 162 151 160 163 149 170 156 142 141 139 140 143 149 209 223 213 205 195 166 177 196
243 247 254 216 199 187 179 132 133 176 184 191 182 189 188 152 153 144 152 162 151 159 144 139 169 151 174 138 151 142 149 145 141 138 127 135 202 193 156 217 209 199 181 201 183
234 249 255 251 201 191 187 132 180 168 180 184 185 183 178 183 151 141 128 140 159 159 156 162 173 149 156 162 146 135 153 154 145 146 138 135 192 146 210 203 204 132 195 193 195
243 234 244 261 201 218 192 202 196 110 179 189 170 130 186 183 185 184 148 187 161 132 136 143 165 156 137 142 148 128 197 175 147 142 137 205 140 188 168 196 166 157 188 186 193
231 238 233 240 246 200 200 196 169 166 149 138 191 195 194 207 196 193 182 142 130 136 134 142 133 139 130 139 158 148 139 158 149 146 141 142 134 136 198 214 196 213 199 192 198
242 235 232 236 241 238 240 197 200 194 247 204 141 188 174 187 184 185 191 190 197 183 166 212 202 183 137 133 141 174 138 163 145 135 173 131 139 192 187 202 198 161 206 164 195
Wind_Speed
33 46 34 42 24 19 22 41 43 15 44 12 40 26 26 23 18 15 19 13 12 15 15 14 12 12 14 13 22 19 22 18 42 18 17 26 22 23 20 31 33 29 28 25 23
33 48 32 47 39 38 20 28 18 27 41 29 29 27 21 17 16 16 20 21 16 21 17 22 13 11 11 14 12 24 15 15 16 20 17 38 22 26 27 25 35 30 28 27 28
51 34 52 45 22 29 55 45 21 21 37 53 31 57 45 27 25 22 22 19 22 23 16 27 16 17 14 14 15 18 22 24 19 27 27 32 30 36 35 37 37 35 36 27 28
59 57 61 43 35 57 32 27 36 34 21 52 37 46 32 25 28 23 24 22 23 22 21 20 21 21 18 21 17 19 19 23 26 17 22 31 49 40 36 40 41 36 31 29 32
65 70 57 47 51 57 48 44 40 49 53 43 39 36 38 30 50 30 27 35 27 26 29 28 23 20 19 18 24 21 23 25 30 26 33 41 37 50 38 44 36 34 33 29 35
79 86 64 58 50 56 56 57 51 49 47 41 43 41 36 50 34 33 29 30 30 28 24 24 26 23 20 45 19 25 26 22 27 29 32 39 47 28 51 45 38 34 35 31 35
65 60 70 75 61 60 53 54 55 53 44 46 36 46 40 37 38 38 31 34 42 28 27 36 34 21 29 20 21 21 25 45 41 26 30 40 52 53 50 41 42 37 46 37 50
73 78 58 66 59 75 59 65 61 49 49 36 62 47 45 40 42 35 34 34 35 31 30 28 25 27 24 24 24 25 25 46 38 40 29 40 46 53 50 41 42 40 41 50 52
82 90 81 63 67 77 68 62 55 55 56 53 45 39 43 42 43 37 37 35 33 34 34 30 29 31 30 26 26 27 26 28 27 32 31 56 41 49 42 47 47 41 42 54 56
104 84 72 59 99 73 66 66 60 64 57 59 56 40 44 50 43 44 39 37 39 41 39 32 31 33 29 30 25 40 39 47 27 59 31 53 41 43 47 44 47 43 48 56 57
109 98 95 90 73 60 74 62 63 67 75 50 51 58 57 50 47 42 42 40 41 37 37 37 36 36 33 36 34 24 37 41 27 29 56 46 47 52 48 44 43 48 47 55 57
101 66 101 66 80 97 68 72 62 65 66 63 61 49 55 52 50 50 45 40 43 41 44 37 38 41 41 39 40 30 42 40 29 53 37 49 47 49 49 51 52 47 48 54 58
106 69 95 96 98 72 80 68 75 62 75 61 65 62 57 57 53 53 45 49 45 50 45 39 46 31 44 43 44 43 35 41 31 30 32 47 50 45 53 51 53 50 53 53 57
100 59 101 64 87 71 92 70 74 74 60 68 71 60 63 58 58 43 53 49 55 48 47 48 46 47 40 38 43 37 42 43 35 31 40 48 53 47 56 54 55 52 52 49 59
71 111 90 103 104 99 75 52 78 66 60 69 65 72 60 63 61 54 50 50 54 51 52 48 46 47 48 34 44 44 45 29 33 39 38 51 55 52 51 55 57 61 47 55 54
108 102 57 78 102 82 81 96 69 72 82 75 68 71 68 64 65 62 56 56 48 53 55 50 47 48 54 46 49 44 47 38 42 40 45 49 55 55 57 55 61 61 53 59 60
95 108 110 104 82 102 93 94 93 69 70 78 70 78 72 67 65 64 63 60 59 55 56 52 52 51 55 45 46 46 54 51 37 44 51 51 56 53 55 57 56 61 53 56 61
96 116 109 108 95 85 95 86 87 78 84 95 64 79 75 70 70 61 59 61 61 62 59 55 52 54 49 47 48 47 56 44 44 53 49 52 57 60 55 59 58 56 54 52 60
105 119 108 109 103 104 92 75 88 88 72 73 81 76 59 66 69 69 68 64 67 64 57 55 59 52 51 48 49 51 32 49 45 46 51 55 60 61 64 53 54 63 56 48 50
64 121 118 116 106 91 107 86 100 83 97 80 59 76 78 72 60 66 70 67 63 64 62 72 53 54 51 51 53 54 53 57 57 52 57 61 65 64 62 53 54 64 55 55 50
70 120 119 117 105 104 74 86 99 111 72 66 76 67 53 87 66 61 82 81 63 71 60 56 56 61 53 57 54 54 53 50 58 63 62 63 65 69 55 53 54 60 58 51 50
67 87 120 118 113 111 105 108 76 101 108 90 51 93 77 55 73 50 72 61 66 60 67 65 64 56 58 57 53 57 55 56 55 62 63 61 71 68 56 54 55 58 63 58 53
65 65 69 107 116 112 107 75 70 98 102 106 100 104 100 76 74 66 71 71 60 62 55 54 68 58 69 56 53 54 54 56 59 64 49 65 74 70 57 54 52 57 63 55 61
68 63 67 70 119 117 112 77 103 93 99 101 102 98 88 91 72 67 58 62 67 67 62 63 71 58 61 63 58 60 55 60 66 65 67 62 69 64 64 57 54 64 58 59 59
66 68 61 58 118 101 112 117 110 55 102 109 90 66 100 93 95 92 67 92 77 59 58 57 71 63 58 59 59 63 77 71 64 68 69 77 67 72 57 62 60 67 62 64 61
67 66 68 63 61 118 116 115 99 94 82 74 111 113 108 114 109 106 90 68 58 63 61 60 62 61 57 58 65 65 67 71 62 69 69 70 63 61 70 61 62 57 60 63 62
66 69 69 66 67 73 69 119 119 107 97 117 74 107 97 103 96 94 101 100 104 91 78 101 93 83 63 57 60 80 69 69 67 63 73 62 58 75 71 69 63 65 63 68 64
Wind_Direction
236 232 231 234 234 245 238 229 242 248 248 265 254 221 240 262 221 239 287 266 265 229 245 236 242 288 308 271 316 300 317 314 334 336 336 318 308 304 310 306 325 322 321 310 299
229 237 229 234 231 235 243 231 241 240 240 225 221 253 279 276 260 235 227 237 250 256 279 296 263 270 239 298 286 318 310 302 309 311 334 336 310 311 312 308 325 325 319 313 308
235 244 241 238 226 245 230 228 244 247 230 253 241 255 252 227 225 233 273 250 239 280 263 299 248 285 265 287 277 299 297 309 289 305 331 332 318 324 329 326 326 327 302 310 305
223 236 240 246 229 228 239 235 249 239 250 246 234 245 226 231 246 246 234 266 248 246 267 247 272 291 272 294 279 290 287 311 309 312 316 332 325 323 326 332 326 321 316 310 305
232 238 237 238 241 229 241 247 232 231 243 233 237 241 244 233 259 232 236 275 244 249 282 287 253 279 260 270 293 288 290 301 313 304 310 327 314 325 317 329 320 315 312 306 305
234 237 236 238 240 245 231 230 241 231 228 253 232 242 233 258 237 258 235 261 245 250 252 248 284 258 262 311 282 300 304 291 307 295 324 324 322 321 324 324 311 314 310 305 301
237 231 237 238 239 239 243 235 231 229 243 232 256 237 233 234 254 251 240 272 276 240 261 280 289 272 293 287 291 289 293 323 311 297 303 323 322 320 325 314 317 312 322 307 328
241 230 231 227 239 235 235 228 225 246 247 249 246 237 230 241 258 238 245 244 260 240 256 260 269 270 276 286 288 291 294 315 311 316 307 319 320 321 325 316 317 310 316 326 328
238 229 238 235 227 232 233 237 244 243 238 242 249 252 245 243 250 243 244 247 250 253 259 252 266 272 270 277 293 291 298 298 301 310 307 324 308 319 317 319 321 312 311 325 326
227 228 238 241 236 229 237 232 238 238 239 235 239 251 251 242 245 242 247 250 256 261 268 257 265 277 281 279 284 301 310 300 302 329 307 325 316 316 320 314 316 312 323 327 320
223 228 232 234 235 240 224 240 237 228 242 249 248 237 242 246 247 255 250 252 251 259 252 269 259 276 279 281 285 296 295 297 296 300 325 312 320 322 317 313 327 317 313 328 319
226 229 229 229 234 238 237 233 240 236 235 238 238 249 243 247 247 246 252 258 254 255 265 261 266 282 276 279 285 293 294 298 292 321 307 316 316 319 316 321 320 322 318 310 325
223 234 230 232 234 232 222 242 235 237 241 240 237 238 246 243 245 246 257 250 254 258 258 258 272 274 277 289 284 290 290 308 285 294 306 312 311 312 316 313 314 312 327 304 329
220 233 229 235 232 233 236 226 222 231 240 235 244 241 237 245 243 251 251 255 255 258 259 276 265 267 280 283 286 290 285 289 292 296 301 310 312 311 316 315 319 310 308 310 328
227 220 234 228 231 231 223 245 230 237 241 237 240 243 245 239 242 252 252 255 252 259 261 262 265 275 273 279 280 278 282 275 289 290 303 310 310 312 315 317 320 314 313 309 311
217 221 236 235 231 230 230 236 239 230 238 234 236 241 240 242 242 253 254 256 253 259 260 264 266 270 272 282 278 276 281 285 294 292 303 307 308 311 313 310 316 318 307 308 318
215 222 222 227 234 232 236 236 234 242 236 239 244 242 237 244 244 247 251 253 252 258 257 263 266 273 270 270 272 275 281 287 289 297 301 305 305 311 314 308 305 306 305 305 312
210 216 223 225 230 231 234 236 239 230 237 242 244 235 247 240 243 250 255 258 259 259 261 265 260 272 265 267 270 272 278 282 288 295 297 303 303 306 312 305 316 304 304 303 307
211 216 223 224 230 231 234 230 236 239 234 241 247 245 248 246 248 253 254 254 265 256 263 263 272 259 263 265 267 268 274 281 285 289 297 300 299 303 305 301 302 309 303 307 303
213 216 220 222 227 232 229 236 238 238 242 238 244 234 236 243 248 253 257 250 253 256 258 271 257 260 263 266 267 267 275 284 288 291 297 298 300 301 304 300 300 307 301 302 303
217 218 221 223 227 228 231 236 238 236 239 240 242 237 248 250 245 253 258 261 254 265 253 257 261 268 264 265 265 272 271 280 285 290 293 298 300 298 301 299 297 295 305 301 303
221 219 222 223 225 228 230 234 236 237 238 241 241 245 241 245 246 250 250 253 255 254 264 265 269 262 262 265 264 276 269 274 281 286 289 295 296 303 299 297 296 296 299 299 301
220 219 219 223 226 229 231 233 235 238 240 242 243 246 248 246 249 250 251 254 253 255 253 257 268 261 273 265 262 267 270 274 279 284 296 295 298 300 308 296 294 294 295 299 296
220 223 220 218 226 228 231 235 237 237 241 243 245 247 248 250 249 254 252 255 256 257 258 260 265 260 264 270 266 271 272 277 283 281 289 297 297 302 299 298 294 312 294 295 297
218 220 222 224 227 228 233 232 236 242 241 243 243 243 249 251 254 256 249 260 258 253 253 253 265 259 260 263 270 279 283 281 276 282 289 291 297 294 305 297 303 304 292 293 297
220 221 221 217 217 230 232 233 238 238 237 238 244 248 250 251 254 257 258 255 259 254 257 253 259 257 268 265 272 273 270 281 273 279 288 291 304 307 296 296 296 290 290 292 295
220 222 223 221 220 220 223 235 238 239 235 241 238 247 249 252 252 255 258 259 262 264 259 269 269 267 262 271 267 279 279 279 275 292 285 301 298 292 294 297 297 303 291 299 293